Regional Weather Roundup
Issued by NWS

Home | Current Version | Previous Version | Graphics & Text | Print | Product List | Glossary On
Versions: 1 2 3 4 5 6 7 8 9 10 11 12 13 14 15 16 17 18 19 20 21 22 23 24 25 26 27 28
000
ASUS45 KBOI 230910
RWRID
WEATHER ROUNDUP FOR IDAHO
NATIONAL WEATHER SERVICE BOISE ID
300 AM MDT WED APR 23 2014

NOTE: "FAIR" INDICATES FEW OR NO CLOUDS BELOW 12000 FEET
WITH NO SIGNIFICANT WEATHER AND/OR OBSTRUCTIONS TO VISIBILITY

IDZ012-014-231000-
SOUTHWEST IDAHO


CITY           SKY/WX    TMP DP  RH WIND       PRES   REMARKS
BOISE          CLEAR     35  30  82 CALM      29.94S
CALDWELL       CLEAR     36  25  64 NW6       29.98R WCI  31
MOUNTAIN HOME  CLEAR     34  34 100 W9        29.94S WCI  26
$$

IDZ016-017-231000-
SOUTHCENTRAL IDAHO


CITY           SKY/WX    TMP DP  RH WIND       PRES   REMARKS
BURLEY         PTCLDY    35  29  78 W22G29    29.85F WCI  23
JEROME         CLEAR     34  29  82 SW17      29.89S WCI  23
TWIN FALLS     CLEAR     36  28  73 SW13      29.91S WCI  27
$$

IDZ019>023-231000-
SOUTHEAST IDAHO


CITY           SKY/WX    TMP DP  RH WIND       PRES   REMARKS
IDAHO FALLS    CLOUDY    37  32  82 SW25G33   29.76R WCI  25
POCATELLO      CLOUDY    37  31  78 SW18G29   29.84R WCI  27
REXBURG        LGT SNOW  34  32  92 SW21G38   29.73R FOG     WCI  22
$$

IDZ006-010-011-018-031-032-231000-
CENTRAL IDAHO MOUNTAINS


CITY           SKY/WX    TMP DP  RH WIND       PRES   REMARKS
MCCALL         CLEAR     26  23  88 N3        29.88R
HAILEY         PTCLDY    36  19  51 NW10      29.78S WCI  28
STANLEY          N/A     24  18  77 CALM      29.86S
SALMON         CLOUDY    37  27  65 S3        29.82S
CHALLIS        CLOUDY    34  20  56 NW10      29.81S WCI  26
$$

IDZ002-004-006-007-026-231000-
NORTHERN IDAHO


CITY           SKY/WX    TMP DP  RH WIND       PRES   REMARKS
LEWISTON       CLOUDY    44  28  53 S8        29.90R
LOWELL         NOT AVBL
COEUR D`ALENE  CLEAR     36  28  75 S7        29.84R WCI  30
MULLAN PASS    MOCLDY    24  20  84 W8        29.74R WCI  15
$$



USA.gov is the U.S. government's official web portal to all federal, state and local government web resources and services.